sat.trackr.live / text

‹ back to catalog

STARLINK-3995

NORAD 52632 · 2022-052AL

PAYLOAD ACTIVE UNKNOWN

§ Identity

Operator
Country
US
Launch date
2022-05-14
Launch site
AFETR
Launch vehicle
Mass (kg)
RCS (m²)

Purposes: comms

External: N2YO · Heavens-Above · Gunter

§ Orbital elements

Epoch: 2026-05-24T19:53:56.787072Z

Period
95.44 min
Inclination
53.2142°
Eccentricity
0.0001177
Mean motion
15.08829240 rev/d
Perigee alt
539.0 km
Apogee alt
540.6 km
Semi-major
6,917.9 km
B*
7.9843e-5
RAAN
287.3151°
Arg perigee
88.5540°
Mean anomaly
271.5588°
Rev number
22,249

§ Raw data

STARLINK-39951 52632U 22052AL  26144.82912948  .00000983  00000+0  79843-4 0  99932 52632  53.2142 287.3151 0001177  88.5540 271.5588 15.08829240222494

JSON: /api/v1/satellites/52632 · /tle

For live sub-satellite position, see the globe view (requires WebGL).

§ Visibility from observer

Set your observer location to see the next 7 days of passes ≥ 10°. The values pass through the URL so the page stays shareable.

No JS? Fill the form by hand. The geolocation button needs JavaScript.